Weather History for Big Delta, AK

Change the Weather History Date:

Saturday, November 30, 2013

  Actual Average Record
Temperature  
Mean Temperature -22 °F -  
Max Temperature -15 °F 9 °F 46 °F (2002)
Min Temperature -29 °F -1 °F -33 °F (2012)
Degree Days  
Heating Degree Days 87    
Moisture  
Dew Point -27 °F    
Average Humidity 75    
Maximum Humidity 84    
Minimum Humidity 59    
Precipitation  
Precipitation 0.00 in - - ()
Sea Level Pressure  
Sea Level Pressure 30.65 in    
Wind  
Wind Speed 2 mph (SE)    
Max Wind Speed 6 mph    
Max Gust Speed -    
Visibility 9 miles    
Events Snow    
Averages and records for this station are not official NWS values.
T = Trace of Precipitation, MM = Missing Value Source: NWS Daily Summary

Daily Weather History Graph

Daily Weather History Graph

Search for Another Location

Airport:

Trip Planner

Search our weather history database for the weather conditions in past years. The results will help you decide how hot, cold, wet, or windy it might be!

Date:

Astronomy

Nov. 30, 2013 Rise Set
Actual Time 9:57 AM AKST 3:05 PM AKST
Civil Twilight 8:48 AM AKST 4:14 PM AKST
Nautical Twilight 7:43 AM AKST 5:19 PM AKST
Astronomical Twilight 6:45 AM AKST 6:17 PM AKST
Moon 6:23 AM AKST (11/30) 2:25 PM AKST (11/30)
Length of Visible Light 7h 26m
Length of Day
5h 07m
Waning Crescent, 6% of the Moon is Illuminated
Nov 30
Waning Crescent
Dec 2
New
Dec 9
First Quarter
Dec 17
Full
Dec 25
Last Quarter

Hourly Weather History & Observations

Time (AKST) Temp. Windchill Dew Point Humidity Pressure Visibility Wind Dir Wind Speed Gust Speed Precip Events Conditions
12:00 AM -20.2 °F -30.9 °F -27.4 °F 69% 30.26 in 8.0 mi ESE 3.5 mph - N/A   Overcast
12:26 AM -23.8 °F -39.8 °F -29.2 °F 76% 30.26 in 10.0 mi ESE 5.8 mph - N/A   Overcast
12:53 AM -24.0 °F - -29.9 °F 74% 30.51 in 10.0 mi Calm Calm - N/A   Mostly Cloudy
1:53 AM -20.9 °F - -26.0 °F 77% 30.52 in 8.0 mi Calm Calm - N/A   Overcast
2:53 AM -18.9 °F - -24.0 °F 78% 30.53 in 6.0 mi Calm Calm - 0.00 in   Haze
3:19 AM -18.4 °F - -23.8 °F 76% 30.32 in 10.0 mi Calm Calm - 0.00 in   Overcast
3:53 AM -17.0 °F - -22.0 °F 78% 30.55 in 10.0 mi Calm Calm - 0.00 in   Overcast
4:22 AM -16.6 °F - -20.2 °F 84% 30.33 in 2.5 mi Calm Calm - 0.00 in Snow Light Snow
4:36 AM -16.6 °F - -20.2 °F 84% 30.34 in 3.0 mi Calm Calm - 0.00 in Snow Light Snow
4:53 AM -16.1 °F - -20.9 °F 79% 30.57 in 10.0 mi Calm Calm - 0.00 in   Overcast
5:53 AM -15.0 °F - -20.9 °F 75% 30.60 in 9.0 mi Calm Calm - 0.00 in   Overcast
6:53 AM -16.1 °F - -22.0 °F 74% 30.63 in 6.0 mi Calm Calm - 0.00 in Snow Light Snow
7:53 AM -18.0 °F - -24.0 °F 74% 30.66 in 10.0 mi Calm Calm - 0.00 in   Mostly Cloudy
8:53 AM -20.9 °F -31.7 °F -27.0 °F 73% 30.68 in 10.0 mi South 3.5 mph - N/A   Partly Cloudy
9:53 AM -24.0 °F - -29.0 °F 77% 30.71 in 10.0 mi Calm Calm - N/A   Partly Cloudy
10:53 AM -25.1 °F -36.5 °F -31.0 °F 74% 30.74 in 10.0 mi ESE 3.5 mph - N/A   Clear
11:53 AM -23.1 °F - -27.9 °F 78% 30.76 in 10.0 mi Calm Calm - N/A   Partly Cloudy
12:53 PM -20.9 °F - -26.0 °F 77% 30.76 in 10.0 mi Calm Calm - N/A   Partly Cloudy
1:53 PM -20.0 °F -33.3 °F -25.1 °F 78% 30.75 in 10.0 mi ESE 4.6 mph - N/A   Scattered Clouds
2:53 PM -20.0 °F -33.3 °F -25.1 °F 78% 30.75 in 10.0 mi ESE 4.6 mph - N/A   Scattered Clouds
3:53 PM -20.9 °F - -26.0 °F 77% 30.76 in 10.0 mi Calm Calm - N/A   Scattered Clouds
4:53 PM -22.0 °F -33.0 °F -26.0 °F 82% 30.76 in 10.0 mi SSW 3.5 mph - N/A   Scattered Clouds
5:53 PM -24.0 °F - -29.0 °F 77% 30.78 in 10.0 mi Calm Calm - N/A   Scattered Clouds
6:53 PM -25.1 °F - -29.0 °F 82% 30.79 in 10.0 mi Calm Calm - N/A   Scattered Clouds
7:53 PM -29.0 °F - -35.0 °F 73% 30.81 in 10.0 mi Calm Calm - N/A   Scattered Clouds
8:53 PM -27.9 °F -39.8 °F -33.0 °F 77% 30.83 in 10.0 mi ESE 3.5 mph - N/A   Scattered Clouds
9:53 PM -24.0 °F -40.0 °F -31.0 °F 70% 30.85 in 10.0 mi South 5.8 mph - N/A   Clear
10:53 PM -24.0 °F -40.0 °F -29.0 °F 77% 30.87 in 10.0 mi SSW 5.8 mph - N/A   Clear
11:53 PM -27.0 °F - -32.1 °F 77% 30.89 in 10.0 mi Calm Calm - N/A   Clear